COSMOS 1275 DEB, 12695

Orbit data source: Space-Track

COSMOS 1275 DEB, 12695 is space debris in LEO originally from a launch on Thu, 04 Jun 1981 UTC launched from the Plesetsk Missile And Space Complex (PKMTR). Debris objects in space refer to the collection of defunct objects orbiting the Earth. Examples of debris include non-operational satellites, rocket bodies, and fragments generated from explosions, collisions, or faulty payload assembly.

Loading next visibility...
Identifier
12695, 1981-053AP
Orbit
LEO
Country
Flag of CISCIS
Related business
Manufacturer
Unknown
Mission
Spacecraft
Bus & Motor
Unknown
Mass
Unknown
Launch date (UTC)
1981-06-04 (44 years ago)
Launch vehicle
Unknown
Launch site
Plesetsk Missile And Space Complex (PKMTR)
Object type
Payload
Rocket body
Debris
Shape & HBR
Unknown
Radar Cross Section
Small (<0.1 m²)

Expand to show TLE details & history
Last TLE update: 8 hours ago

TLE from 8 hours ago
0 COSMOS 1275 DEB
1 12695U 81053AP  25260.96329471  .00000985  00000-0  99066-3 0  9991
2 12695  83.0072 101.3140 0107482  72.4345  49.9989 13.73987538191689
Epoch: 2025-09-17T23:07Z
TLE epoch observation values (Epoch: 2025-09-17T23:07:08.662Z)
Latitude
56.0711°
Longitude
-73.05402°
Altitude
944.254 km
Speed
7.41 km/s
True Right ascension
18h 03m 27s
True Declination
55° 54' 57"
Sunlit
Object was in daylight at epoch
Visualization orbit readout
Latitude
Unknown
Longitude
Unknown
Altitude
Unknown
Speed
Unknown
Apparent Right ascension
Unknown
Apparent Declination
Unknown
Sunlit
N/A
Visualization observer readout
Local Sidereal Time
00:21:23
Azimuth
Unknown
Elevation
Unknown
Doppler factor
Unknown
Orbital elements
Apogee altitude
1,061.55 km
Perigee altitude
903.324 km
Semi-major axis
7,360.574 km
Eccentricity
0.01075
Inclination
83.0072°
RAAN
101.314°
Arg. of periapsis
72.4345°
True anomaly
50.95056°
Mean anomaly
49.9989°
Eccentric anomaly
50.47391°
Mean motion
3.43697 °/min
Orbital period
104.74 mins
BSTAR
0.00099066
Loading maneuver chart data...
Computing Atmospheric mass density...
Loading historical data...
Loading historical data...
Loading historical data...
Loading historical data...
Loading historical data...
Loading historical data...
Loading historical data...

Documentation

Showing up to 5 results
|